Date String (YYYY-MM-DD hh:mm:ss) UTC,Instrument flags,absolute air pressure of the measurement (hPa),sample flow rate (lpm),inlet stack bypass flow (lpm),air temperature of the measurement (°C),ambient temperature measured by the external sensor (°C),aerosol sample conditioner tube jacket temperature (°C),OPC LED temperature (°C),internal box temperature (°C),relative humidity of the measurement (%),span deviation,mass concentration of particles derived from Lorenz-Mie calculation of OPC scattering (μg/m³),mass concentration of particles derived from Lorenz-Mie calculation of OPC scattering (μg/m³),mass concentration of particles derived from Lorenz-Mie calculation of OPC scattering (μg/m³)
DateTimeUTC,F1_M11,P_M11,Q1_M11,Q2_M11,T1_M11,T2_M11,T3_M11,T4_M11,T5_M11,U1_M11,ZSPAN_M11,X0_M11,X2_M11,X1_M11
2023-10-13 21:00:00,SystemResetWarning,0832.3,5.01,000.00,028.9,027.7,000.0,037.2,030.6,10.0,0000.0,0003.53,0001.53,0001.21
2023-10-13 21:01:00,SystemResetWarning,0832.2,5.01,000.00,028.9,027.7,000.0,037.2,030.6,10.1,0000.0,0003.51,0001.51,0001.20
2023-10-13 21:02:00,SystemResetWarning,0832.2,5.00,000.00,028.9,027.7,000.0,037.2,030.6,10.0,0000.0,0004.42,0001.50,0001.19
2023-10-13 21:03:00,SystemResetWarning,0832.3,5.00,000.00,028.9,027.7,000.0,037.2,030.6,9.9,0000.0,0005.42,0001.46,0001.19
2023-10-13 21:04:00,SystemResetWarning,0832.3,5.00,000.00,028.9,027.7,000.0,037.3,030.6,10.0,0000.0,0005.36,0001.44,0001.18
2023-10-13 21:05:00,SystemResetWarning,0832.3,5.00,000.00,028.9,027.7,000.0,037.3,030.6,10.1,0000.0,0005.43,0001.46,0001.19
2023-10-13 21:06:00,SystemResetWarning,0832.3,5.00,000.00,028.9,027.7,000.0,037.3,030.6,10.0,0000.0,0005.09,0001.46,0001.19
2023-10-13 21:07:00,SystemResetWarning,0832.3,5.00,000.00,029.0,027.7,000.0,037.3,030.6,9.9,0000.0,0004.89,0001.46,0001.18
2023-10-13 21:08:00,SystemResetWarning,0832.3,5.00,000.00,029.0,027.7,000.0,037.3,030.6,9.9,0000.0,0004.84,0001.46,0001.18
2023-10-13 21:09:00,SystemResetWarning,0832.3,5.00,000.00,029.0,027.7,000.0,037.3,030.7,10.1,0000.0,0004.86,0001.47,0001.19
2023-10-13 21:10:00,SystemResetWarning,0832.3,5.00,000.00,029.0,027.7,000.0,037.3,030.7,10.1,0000.0,0004.83,0001.47,0001.21
2023-10-13 21:11:00,SystemResetWarning,0832.3,4.99,000.00,029.0,027.7,000.0,037.3,030.6,10.0,0000.0,0004.89,0001.50,0001.23
2023-10-13 21:12:00,SystemResetWarning,0832.3,5.00,000.00,029.0,027.7,000.0,037.3,030.7,10.1,0000.0,0004.99,0001.54,0001.25
2023-10-13 21:13:00,SystemResetWarning,0832.4,5.00,000.00,029.0,027.8,000.0,037.3,030.7,10.0,0000.0,0003.96,0001.59,0001.26
2023-10-13 21:14:00,SystemResetWarning,0832.4,5.00,000.00,029.0,027.8,000.0,037.4,030.7,9.9,0000.0,0002.75,0001.62,0001.28
2023-10-13 21:15:00,SystemResetWarning,0832.4,5.01,000.00,029.1,027.8,000.0,037.4,030.7,9.9,0000.0,0002.73,0001.63,0001.29
2023-10-13 21:16:00,SystemResetWarning,0832.4,5.01,000.00,029.1,027.8,000.0,037.4,030.7,9.9,0000.0,0002.93,0001.60,0001.29
2023-10-13 21:17:00,SystemResetWarning,0832.3,5.00,000.00,029.1,027.8,000.0,037.4,030.8,10.1,0000.0,0003.02,0001.58,0001.29
2023-10-13 21:18:00,SystemResetWarning,0832.3,4.99,000.00,029.1,027.8,000.0,037.4,030.7,10.0,0000.0,0003.02,0001.58,0001.30
2023-10-13 21:19:00,SystemResetWarning,0832.4,4.99,000.00,029.1,027.8,000.0,037.4,030.7,9.9,0000.0,0003.15,0001.57,0001.29
2023-10-13 21:20:00,SystemResetWarning,0832.4,5.01,000.00,029.1,027.8,000.0,037.4,030.7,9.9,0000.0,0003.34,0001.57,0001.28
2023-10-13 21:21:00,SystemResetWarning,0832.4,5.01,000.00,029.1,027.8,000.0,037.4,030.8,9.9,0000.0,0003.41,0001.59,0001.29
2023-10-13 21:22:00,SystemResetWarning,0832.4,5.00,000.00,029.1,027.8,000.0,037.5,030.8,9.9,0000.0,0004.04,0001.60,0001.28
2023-10-13 21:23:00,SystemResetWarning,0832.5,4.98,000.00,029.1,027.9,000.0,037.5,030.8,9.9,0000.0,0004.52,0001.55,0001.28
2023-10-13 21:24:00,SystemResetWarning,0832.4,5.00,000.00,029.2,027.9,000.0,037.5,030.8,9.9,0000.0,0004.41,0001.53,0001.29
2023-10-13 21:25:00,SystemResetWarning,0832.4,5.00,000.00,029.2,027.9,000.0,037.5,030.8,9.9,0000.0,0004.40,0001.52,0001.29
2023-10-13 21:26:00,SystemResetWarning,0832.4,5.00,000.00,029.2,027.9,000.0,037.5,030.9,10.1,0000.0,0004.50,0001.56,0001.29
2023-10-13 21:27:00,SystemResetWarning,0832.4,5.01,000.00,029.2,027.9,000.0,037.5,030.9,10.2,0000.0,0004.25,0001.56,0001.27
2023-10-13 21:28:00,SystemResetWarning,0832.4,5.00,000.00,029.2,028.0,000.0,037.5,030.9,10.0,0000.0,0004.67,0001.56,0001.26
2023-10-13 21:29:00,SystemResetWarning,0832.4,5.00,000.00,029.2,028.0,000.0,037.5,030.9,10.0,0000.0,0005.43,0001.56,0001.25
2023-10-13 21:30:00,SystemResetWarning,0832.5,5.00,000.00,029.3,028.0,000.0,037.5,030.9,9.9,0000.0,0005.48,0001.57,0001.26
2023-10-13 21:31:00,SystemResetWarning,0832.4,5.00,000.00,029.3,028.0,000.0,037.6,030.9,9.9,0000.0,0005.52,0001.58,0001.26
2023-10-13 21:32:00,SystemResetWarning,0832.5,4.99,000.00,029.3,028.0,000.0,037.6,030.9,9.9,0000.0,0005.88,0001.61,0001.25
2023-10-13 21:33:00,SystemResetWarning,0832.5,5.00,000.00,029.3,028.0,000.0,037.6,030.9,9.8,0000.0,0006.38,0001.69,0001.24
2023-10-13 21:34:00,SystemResetWarning,0832.5,4.99,000.00,029.3,028.0,000.0,037.6,030.9,9.9,0000.0,0006.61,0001.72,0001.23
2023-10-13 21:35:00,SystemResetWarning,0832.5,5.00,000.00,029.3,028.0,000.0,037.6,030.9,9.9,0000.0,0007.96,0001.72,0001.21
2023-10-13 21:36:00,SystemResetWarning,0832.5,5.00,000.00,029.3,028.0,000.0,037.6,030.9,9.9,0000.0,0007.98,0001.70,0001.20
2023-10-13 21:37:00,SystemResetWarning,0832.5,5.01,000.00,029.3,028.0,000.0,037.6,030.9,9.9,0000.0,0007.91,0001.64,0001.19
2023-10-13 21:38:00,SystemResetWarning,0832.6,5.01,000.00,029.3,028.0,000.0,037.6,030.9,10.0,0000.0,0008.21,0001.67,0001.19
2023-10-13 21:39:00,SystemResetWarning,0832.6,5.00,000.00,029.3,028.0,000.0,037.6,030.9,9.9,0000.0,0008.23,0001.70,0001.21
2023-10-13 21:40:00,SystemResetWarning,0832.6,5.00,000.00,029.3,028.0,000.0,037.7,030.9,9.9,0000.0,0007.83,0001.70,0001.21
2023-10-13 21:41:00,SystemResetWarning,0832.5,5.00,000.00,029.3,028.0,000.0,037.7,030.9,9.9,0000.0,0009.08,0001.67,0001.21
2023-10-13 21:42:00,SystemResetWarning,0832.6,4.99,000.00,029.3,028.0,000.0,037.7,031.0,9.9,0000.0,0008.98,0001.64,0001.20
2023-10-13 21:43:00,SystemResetWarning,0832.6,5.00,000.00,029.3,028.0,000.0,037.7,030.9,9.9,0000.0,0009.04,0001.59,0001.19
2023-10-13 21:44:00,SystemResetWarning,0832.5,5.00,000.00,029.3,028.0,000.0,037.7,030.9,9.8,0000.0,0008.89,0001.52,0001.20
2023-10-13 21:45:00,SystemResetWarning,0832.6,5.00,000.00,029.3,028.0,000.0,037.7,030.9,9.9,0000.0,0008.18,0001.48,0001.21
2023-10-13 21:46:00,SystemResetWarning,0832.6,5.01,000.00,029.3,028.0,000.0,037.7,030.9,9.9,0000.0,0007.14,0001.48,0001.21
2023-10-13 21:47:00,SystemResetWarning,0832.6,5.00,000.00,029.3,028.0,000.0,037.7,030.9,9.9,0000.0,0007.36,0001.48,0001.20
2023-10-13 21:48:00,SystemResetWarning,0832.6,5.00,000.00,029.3,028.0,000.0,037.7,030.9,9.9,0000.0,0008.22,0001.50,0001.21
2023-10-13 21:49:00,SystemResetWarning,0832.6,5.00,000.00,029.3,028.0,000.0,037.7,030.9,10.0,0000.0,0008.14,0001.51,0001.21
2023-10-13 21:50:00,SystemResetWarning,0832.6,5.00,000.00,029.3,028.0,000.0,037.7,030.9,10.0,0000.0,0007.69,0001.47,0001.20
2023-10-13 21:51:00,SystemResetWarning,0832.7,5.00,000.00,029.3,028.0,000.0,037.7,030.9,9.9,0000.0,0007.66,0001.47,0001.19
2023-10-13 21:52:00,SystemResetWarning,0832.7,5.00,000.00,029.3,028.0,000.0,037.8,030.9,9.9,0000.0,0005.94,0001.50,0001.20
2023-10-13 21:53:00,SystemResetWarning,0832.6,5.00,000.00,029.3,028.0,000.0,037.7,030.9,9.9,0000.0,0005.37,0001.54,0001.21
2023-10-13 21:54:00,SystemResetWarning,0832.7,5.00,000.00,029.3,028.0,000.0,037.7,030.9,10.0,0000.0,0005.49,0001.56,0001.22
2023-10-13 21:55:00,SystemResetWarning,0832.6,5.00,000.00,029.3,028.0,000.0,037.7,030.9,10.1,0000.0,0005.43,0001.56,0001.21
2023-10-13 21:56:00,SystemResetWarning,0832.6,5.00,000.00,029.3,028.0,000.0,037.7,030.9,10.1,0000.0,0005.53,0001.60,0001.22
2023-10-13 21:57:00,SystemResetWarning,0832.6,5.00,000.00,029.3,028.0,000.0,037.8,030.9,10.0,0000.0,0005.52,0001.62,0001.22
2023-10-13 21:58:00,SystemResetWarning,0832.6,5.00,000.00,029.3,028.0,000.0,037.8,030.9,10.0,0000.0,0006.69,0001.60,0001.23
2023-10-13 21:59:00,SystemResetWarning,0832.6,4.99,000.00,029.3,028.0,000.0,037.8,030.9,10.0,0000.0,0005.12,0001.59,0001.23
